Location: Schommer Observatory
(40.5200°N, 74.4500°W)
Time: 11:29:40
(UTC-04:00)

Tiangong 2 - Pass Details

Date: 20 May 2018
Orbit: 382 x 385 km, 42.8° (Epoch: 27 May)

Event Time Altitude Azimuth Distance (km) Brightness Sun altitude
Exits shadow 04:24:00 15° 188° (S) 1,122 3.0 -12.3°
Drops below altitude 10° 04:25:08 10° 169° (S) 1,391 3.6 -12.2°
Sets 04:27:37 0° 149° (SSE) 2,241 4.9 -11.8°
